Regional Weather Roundup
Issued by NWS

Home | Current Version | Previous Version | Text Only | Print | Product List | Glossary Off
Versions: 1 2 3 4 5 6 7 8 9 10 11 12 13 14 15 16 17 18 19 20 21 22 23 24 25 26 27 28 29 30 31 32 33 34 35 36 37 38 39 40 41 42 43 44 45 46 47 48 49 50

000
ASUS43 KTOP 301008
RWRKS

WEATHER ROUNDUP FOR KANSAS
NATIONAL WEATHER SERVICE GOODLAND KS
400 AM CST FRI JAN 30 2015

NOTE:  "FAIR" INDICATES FEW OR NO CLOUDS BELOW 12,000 FEET WITH NO
SIGNIFICANT WEATHER AND/OR OBSTRUCTIONS TO VISIBILITY.

KSZ001>006-013>018-027>032-041>047-301100-
NORTHWEST KANSAS

CITY           SKY/WX    TMP DP  RH WIND       PRES   REMARKS
GOODLAND       MOCLDY    29  21  72 S12       30.39F WCI  19
HAYS           PTCLDY    19   9  63 CALM      30.47F
HILL CITY      PTCLDY    16  12  84 W3        30.47F
RUSSELL        PTCLDY    20  17  88 SW7       30.47F
$$

KSZ061>065-074>080-084>089-301100-
SOUTHWEST KANSAS

CITY           SKY/WX    TMP DP  RH WIND       PRES   REMARKS
DODGE CITY     PTCLDY    24  18  77 S7        30.47F
ELKHART          N/A     36  23  59 S9          N/A
GARDEN CITY    MOCLDY    26  20  77 SW7       30.45F
LIBERAL        CLOUDY    34  21  60 SW6       30.47F
PRATT          PTCLDY    28  21  74 CALM      30.49F
$$

KSZ066>073-081>083-090>101-301100-
SOUTHEAST KANSAS

CITY           SKY/WX    TMP DP  RH WIND       PRES   REMARKS
CHANUTE        PTCLDY    20  18  92 N5        30.53F
COFFEYVILLE    CLEAR     24  22  91 N3        30.53F
HUTCHINSON     PTCLDY    22  19  89 CALM      30.51S
MEDICINE LODGE   N/A     23  19  85 W3        30.50F
NEWTON         PTCLDY    27  19  74 E5        30.51F
PARSONS        PTCLDY    24  22  91 NE3       30.54S
WICHITA INTL   MOCLDY    28  22  78 NE5       30.51F
WICHITA JABRA  CLEAR     22  20  92 E3        30.51F
WICHITA MCCONL CLEAR     29  24  82 E5        30.51F
WINFIELD       PTCLDY    24  20  84 CALM      30.52F
$$

KSZ007>012-019>026-033>040-048>060-102>105-301100-
NORTHEAST KANSAS

CITY           SKY/WX    TMP DP  RH WIND       PRES   REMARKS
CONCORDIA      CLEAR     19  18  95 SE6       30.51F
EMPORIA        CLEAR     20  19  96 NW3       30.52F
LAWRENCE       CLEAR     15  13  91 NW7       30.55F
MANHATTAN      PTCLDY    17  15  92 CALM      30.54F
MARYSVILLE     PTCLDY    18  18 100 CALM      30.53F
OLATHE IND     CLEAR     21  18  88 NW6       30.54S
OLATHE EXE     CLEAR     24  21  88 NW5       30.52S
SALINA         CLEAR     24  19  81 CALM      30.53S
TOPEKA BILLARD PTCLDY    20  15  81 CALM      30.56S
TOPEKA FORBES  PTCLDY    21  17  84 N5        30.53F
$$



USA.gov is the U.S. government's official web portal to all federal, state and local government web resources and services.